Theta_e
296 298 299 299 300 300 300 300 301 300 300 300 300 300 300 300 300 300 300 300 299 296 297 297 299 299 300 303 314 320 326 329 330 328 327 327 326 324 323 323 322 323 322 322
297 299 298 298 298 298 299 300 301 300 299 300 300 300 299 299 300 300 300 300 299 297 296 297 298 299 299 301 317 325 326 329 327 326 326 326 325 325 324 324 323 324 323 323
297 298 297 297 298 300 299 300 301 302 301 301 301 301 300 299 299 299 299 299 299 298 297 297 298 298 299 300 321 323 323 328 328 327 326 325 325 325 324 324 323 323 323 323
296 296 297 297 298 298 297 299 300 301 302 302 300 301 299 298 297 294 294 297 298 298 296 297 298 297 299 300 310 323 318 328 327 328 328 327 325 325 324 323 323 324 324 323
295 296 297 295 298 297 295 297 299 300 301 302 301 302 300 297 295 293 292 292 294 294 297 297 296 297 299 300 309 324 318 326 326 327 326 327 327 326 325 323 323 323 323 324
295 295 295 296 297 297 297 297 297 300 302 302 301 302 298 294 293 292 290 290 291 292 294 296 295 297 298 301 318 323 322 324 326 325 322 328 327 326 324 323 322 321 322 322
293 295 295 296 295 297 295 294 292 296 300 303 304 305 296 291 290 290 289 289 290 292 293 296 295 296 297 305 320 323 323 322 323 325 324 323 324 325 324 324 322 320 320 321
290 292 295 295 295 296 294 295 296 295 301 300 299 302 298 289 288 287 287 296 293 293 294 296 296 296 298 306 320 321 317 311 314 315 315 313 316 310 310 313 314 311 313 311
291 289 294 295 298 293 292 293 292 294 296 298 301 292 293 287 286 285 286 298 296 297 297 304 306 307 309 312 316 310 308 303 303 301 304 302 303 298 296 298 298 298 297 302
292 291 294 296 295 294 293 291 290 294 295 297 299 290 287 285 284 282 286 301 301 302 301 301 301 301 301 301 302 301 300 299 298 297 296 295 296 301 295 294 292 293 293 293
295 291 293 295 296 294 291 290 291 290 295 295 295 290 285 283 282 281 287 298 298 299 299 298 298 297 297 297 296 296 295 294 293 292 291 291 292 292 291 292 292 292 292 292
295 290 290 287 292 295 293 289 288 284 289 289 293 291 284 282 281 282 285 293 295 295 295 295 295 295 294 293 293 293 292 291 290 290 289 288 289 288 287 287 288 289 289 289
293 293 289 292 295 294 294 290 287 289 288 288 288 288 284 281 280 280 282 288 291 293 293 292 292 293 292 291 291 290 289 289 288 287 286 286 286 285 284 284 284 285 285 284
291 291 295 296 296 294 293 291 288 285 282 286 286 284 282 279 278 278 280 284 287 288 289 289 289 289 289 289 289 288 287 287 286 285 284 283 282 282 281 281 281 281 281 281
292 288 286 289 289 295 294 291 288 285 285 285 285 283 281 279 277 277 278 281 283 285 285 286 286 286 286 286 286 286 285 285 284 283 282 281 280 279 279 279 279 279 278 278
290 290 285 286 285 290 294 292 290 286 284 285 284 284 281 279 277 276 276 278 279 281 282 283 283 283 283 284 283 283 283 282 281 280 279 278 278 277 277 277 277 277 278 278
292 291 290 291 291 291 296 293 290 288 284 282 281 282 281 279 277 275 275 276 276 277 279 279 280 280 280 280 280 280 279 279 279 278 277 277 277 276 276 276 276 276 276 276
293 294 285 290 290 301 300 292 290 289 285 283 282 281 281 281 277 276 274 274 275 275 276 277 277 277 277 277 277 277 276 276 276 276 276 276 275 275 275 274 274 274 274 274
290 290 285 292 282 297 296 289 288 288 290 283 281 280 280 283 284 279 274 274 274 274 273 274 275 275 275 275 275 275 275 275 274 274 274 274 274 274 274 273 273 273 273 273
292 287 288 281 292 297 294 289 288 288 294 282 280 279 279 281 285 278 273 273 273 273 272 272 273 274 274 274 274 274 274 274 273 273 273 273 273 273 272 272 272 272 272 272
282 281 285 280 285 289 284 286 286 291 292 277 277 278 277 276 274 274 273 273 272 272 273 272 271 272 272 273 273 272 272 272 272 272 272 272 272 272 272 272 271 271 271 271
289 286 282 276 284 295 281 286 290 282 273 273 272 275 275 272 272 272 272 272 271 271 271 271 270 270 271 272 272 271 270 271 272 273 272 272 272 271 271 271 271 271 271 270
292 289 288 288 290 281 276 277 273 272 276 273 276 275 276 275 274 273 272 271 270 270 270 270 270 270 271 271 271 270 270 272 272 272 271 271 271 271 271 271 271 270 270 269
290 290 289 288 287 282 276 276 276 276 279 281 280 279 277 274 273 272 272 270 270 269 269 269 269 269 269 271 271 270 271 272 272 271 271 271 271 271 270 269 270 270 270 269
291 291 291 289 287 283 282 282 281 279 279 279 278 277 276 274 272 271 271 270 269 269 269 269 269 268 269 270 270 271 271 272 271 270 270 269 269 269 269 269 269 269 269 269
289 291 292 292 290 289 289 284 282 281 280 278 277 276 275 274 272 271 270 269 269 268 268 269 269 269 269 270 271 271 271 272 272 271 270 269 269 269 269 269 268 268 267 267
Wind_Speed
2 2 5 6 6 13 13 13 19 24 18 14 18 20 22 20 20 22 19 17 14 12 12 19 25 26 25 24 20 20 14 17 28 28 29 30 33 30 26 32 40 42 38 36
2 4 2 5 8 11 14 16 20 16 4 10 13 21 21 18 17 21 17 15 14 9 7 12 17 21 20 20 19 18 16 18 21 24 20 29 29 28 32 37 39 41 39 37
4 5 7 9 11 10 16 11 14 17 17 10 11 11 4 6 6 9 7 9 11 11 11 14 9 14 16 16 14 13 7 18 24 24 29 25 28 26 25 28 29 37 40 38
5 2 9 11 5 9 8 5 13 19 15 3 6 5 4 8 11 15 15 13 12 10 8 12 11 8 15 15 11 6 4 20 15 27 27 25 27 21 26 28 32 36 39 37
5 7 9 4 10 13 10 17 21 19 16 10 3 4 4 8 16 23 20 18 15 14 12 13 10 13 20 11 10 10 7 4 12 19 28 34 28 21 17 26 25 29 33 35
5 5 0 3 12 11 13 11 20 2 3 2 1 6 3 9 16 23 20 20 19 16 14 11 8 10 17 8 6 10 16 8 9 11 4 27 24 17 19 24 25 26 29 32
8 4 5 4 11 8 20 15 4 5 3 2 4 4 6 18 23 19 24 25 21 14 12 9 5 5 6 2 5 15 18 15 13 15 17 9 8 6 21 23 19 17 21 25
4 8 7 6 2 9 13 7 4 4 3 5 10 3 1 26 23 19 27 17 10 8 8 7 4 4 6 5 2 28 25 31 25 26 29 23 16 20 17 13 14 15 16 18
5 6 4 6 3 7 9 12 10 4 5 3 3 7 3 31 34 35 34 15 9 9 10 12 14 17 19 22 18 32 35 30 37 32 38 34 36 37 34 34 30 31 27 29
3 6 3 5 6 4 10 11 4 4 5 4 5 6 9 28 27 33 31 20 19 19 17 16 15 20 26 28 28 38 38 35 34 35 37 37 43 42 39 42 39 42 35 36
3 2 8 4 6 15 13 10 3 2 3 3 5 2 10 17 21 24 24 19 19 17 15 16 15 24 28 31 32 36 37 38 37 37 37 42 49 48 44 49 47 45 44 42
2 2 4 6 5 15 17 12 5 3 6 3 3 2 15 18 20 19 22 20 18 17 16 16 16 25 30 32 32 36 33 42 34 37 41 42 54 44 43 44 44 45 46 43
4 3 5 9 2 3 10 22 16 2 3 11 3 5 15 20 21 23 22 21 17 17 18 17 18 19 27 30 32 35 37 38 34 37 43 44 50 42 40 41 42 43 43 42
3 1 1 2 6 4 16 20 19 10 3 5 5 10 20 22 23 24 23 20 17 17 18 19 19 21 29 29 32 35 37 36 36 42 42 42 42 39 40 40 40 40 41 43
3 2 2 4 3 1 13 14 19 17 10 5 8 8 15 16 17 17 16 18 18 20 21 20 18 17 27 29 32 34 36 36 35 41 43 42 39 38 40 42 41 41 44 43
4 3 3 4 2 2 8 18 15 13 10 5 9 5 14 13 14 19 18 18 18 20 20 19 19 25 27 27 28 34 36 35 36 41 42 38 37 41 42 41 39 40 38 40
7 3 4 5 9 4 8 16 10 7 12 3 6 6 10 12 14 16 16 16 18 19 18 19 18 25 27 28 29 34 34 33 39 41 39 38 37 40 37 34 38 39 39 39
5 3 3 3 7 9 4 4 2 8 13 14 5 8 6 1 5 14 17 16 18 18 18 19 24 27 29 30 33 34 35 36 39 41 38 36 35 34 34 37 36 37 38 38
5 2 3 4 2 2 3 6 4 4 8 11 9 12 9 3 4 15 19 17 15 16 20 20 23 25 29 32 30 35 37 38 39 36 35 33 32 35 35 35 33 32 34 34
2 4 3 3 5 2 4 2 1 1 9 8 11 12 11 11 11 5 16 19 19 21 21 22 24 27 34 30 29 35 35 35 33 32 34 35 35 36 34 34 34 32 33 32
4 4 4 2 2 6 4 6 1 5 3 1 3 4 9 5 2 3 11 13 16 16 20 20 25 29 28 27 30 33 32 29 26 32 34 34 36 38 36 35 34 33 32 33
3 3 1 2 4 3 3 1 6 5 0 5 3 3 3 1 2 2 6 10 14 17 19 21 25 29 29 27 30 31 28 29 34 36 37 37 35 33 34 36 35 34 33 34
2 4 3 5 4 3 2 4 3 4 5 5 4 4 5 4 2 4 5 9 12 14 16 19 23 28 30 30 31 32 28 33 35 36 36 35 34 34 33 33 32 31 30 28
3 3 2 3 4 5 4 2 3 6 5 5 5 6 6 6 5 4 6 9 11 13 16 20 25 28 28 27 29 29 30 31 33 35 33 31 30 29 30 30 28 29 29 28
3 7 5 3 2 2 5 8 9 7 5 7 10 7 8 9 6 6 7 8 11 14 17 23 25 25 23 23 25 25 27 29 32 32 30 29 28 27 26 25 23 22 21 19
6 7 6 6 11 5 6 14 13 12 12 11 10 9 12 13 11 12 10 11 14 17 17 21 22 23 22 23 23 22 23 26 28 29 26 25 25 25 24 23 21 19 15 16
Wind_Direction
348 279 249 270 238 265 278 275 278 280 287 283 270 270 268 262 251 257 260 258 257 243 249 265 273 280 289 296 251 240 244 208 198 185 167 175 190 188 194 199 204 207 208 208
324 256 291 287 296 300 292 280 278 281 250 303 283 274 278 273 255 250 248 255 257 260 248 260 265 276 283 298 257 223 216 196 183 175 183 181 182 183 198 203 205 210 211 212
262 276 313 329 322 333 317 276 276 284 317 254 277 283 281 304 332 300 286 285 264 243 248 260 254 261 284 296 249 211 209 188 186 185 187 190 186 187 194 202 203 209 215 217
276 322 335 327 299 339 300 241 303 293 306 275 61 291 10 15 17 5 345 332 332 313 236 250 266 261 265 274 272 224 1 187 203 190 179 173 187 191 201 205 208 211 216 218
277 326 339 323 329 324 256 300 292 285 274 281 252 227 17 14 348 340 331 320 314 310 305 254 242 253 262 283 273 204 102 125 203 214 216 194 195 199 191 201 212 213 217 221
265 281 219 259 302 305 322 305 309 328 233 213 300 202 57 11 333 324 320 309 302 296 295 296 257 260 269 288 262 194 142 169 175 165 103 197 185 186 178 200 209 210 214 218
329 328 317 309 333 333 348 347 337 1 13 230 343 247 70 354 349 329 314 304 290 281 282 290 247 237 299 281 214 166 118 98 98 102 98 62 52 265 201 208 211 205 205 213
11 331 13 322 2 316 335 345 344 312 326 318 310 352 135 3 331 337 336 300 271 301 301 309 345 33 4 341 141 93 78 70 85 82 81 70 73 57 69 92 118 102 108 101
341 289 307 308 342 23 340 341 303 253 239 249 344 2 229 345 348 347 341 34 60 49 60 64 65 59 52 49 88 87 81 72 74 78 82 80 80 67 56 73 74 79 79 87
283 299 330 342 17 51 341 345 1 349 349 342 64 50 343 343 342 333 341 33 53 62 64 62 55 56 61 63 70 84 83 78 78 79 79 77 80 82 75 74 67 71 68 71
279 140 305 4 15 10 8 12 345 276 305 344 344 48 356 341 338 329 338 23 36 44 50 56 58 62 68 70 71 75 77 78 75 77 78 80 78 79 76 78 76 75 75 73
317 220 292 245 205 51 32 7 340 72 344 349 318 65 10 354 336 342 351 12 30 37 47 54 60 63 64 67 69 75 76 78 77 82 81 77 80 75 73 74 77 80 77 77
336 1 338 348 348 28 17 14 17 107 25 17 23 319 352 353 348 358 0 6 21 37 46 52 57 58 62 65 70 74 74 78 79 80 80 78 79 73 69 70 72 74 74 71
78 360 52 6 303 321 8 20 25 37 59 323 44 325 350 354 356 351 355 2 18 32 43 48 52 54 54 62 67 71 75 75 78 77 74 74 75 73 75 73 71 70 74 71
61 29 21 257 233 333 29 22 24 39 13 46 331 16 356 360 349 347 350 3 20 33 38 42 45 50 51 58 63 68 72 71 74 77 73 69 72 74 71 69 69 68 69 71
8 322 53 298 329 227 37 29 29 39 14 16 345 30 354 3 3 8 0 8 21 30 33 38 41 46 45 55 64 67 68 71 74 74 73 73 71 71 70 70 71 72 69 69
358 340 23 325 341 73 15 16 22 44 38 304 22 315 332 12 13 10 5 11 19 25 29 34 39 46 48 52 62 66 70 72 71 71 71 71 70 70 73 75 74 73 72 72
341 2 36 297 348 38 333 29 120 70 38 26 15 353 328 111 51 30 16 14 18 18 21 27 34 42 48 55 61 68 67 69 69 68 69 71 74 75 75 75 73 72 72 71
190 90 52 83 30 270 2 5 5 13 31 20 1 3 357 294 185 38 12 12 18 19 24 32 45 52 56 56 63 70 68 68 68 67 69 73 76 76 75 73 71 70 72 68
166 109 110 41 90 72 232 286 326 212 39 17 15 10 3 352 70 342 346 1 12 26 32 33 43 55 59 56 66 70 67 69 68 71 76 81 82 82 79 76 75 77 76 72
353 4 92 42 118 286 250 291 261 71 213 134 72 23 35 49 77 289 336 6 22 30 41 50 56 57 58 65 72 71 72 69 78 85 86 82 80 82 83 85 82 78 73 70
154 116 186 92 70 339 170 296 129 173 8 145 155 154 98 106 41 353 5 21 28 35 40 50 63 64 72 75 82 77 72 88 92 90 88 85 83 81 78 75 70 66 63 60
311 182 191 176 207 245 220 165 210 151 142 191 148 170 146 134 82 65 51 48 48 50 52 64 70 76 82 84 84 83 87 92 91 87 83 81 79 76 71 69 63 55 51 47
249 172 154 74 238 232 202 210 173 179 156 158 145 145 140 132 117 85 70 59 57 61 69 84 85 80 80 86 91 95 96 93 89 86 82 80 78 75 71 65 61 53 42 39
201 147 171 262 286 340 225 210 174 170 152 140 142 149 145 140 136 131 114 101 97 97 99 101 99 98 94 96 97 100 100 97 92 90 86 81 76 72 68 65 54 54 51 39
187 178 174 215 181 163 180 178 163 161 173 165 154 149 160 158 151 141 126 128 124 118 115 109 105 103 100 101 101 102 101 97 94 91 88 82 76 71 67 65 63 57 52 44